Regional Weather Roundup
Issued by NWS Wakefield, VA

Home | Current Version | Previous Version | Text Only | Print | Product List | Glossary On
Versions: 1 2 3 4 5 6 7 8 9 10 11 12 13 14 15 16 17 18 19 20 21 22 23 24 25 26 27
000
ASUS41 KAKQ 012114
RWRAKQ

REGIONAL WEATHER ROUNDUP
NATIONAL WEATHER SERVICE WAKEFIELD VA
400 PM EST WED MAR 01 2017

Note: "fair" indicates few or no clouds below 12,000 feet with no
significant weather and/or obstructions to visibility. * = Denotes
station may not report precipitation (e.g., rain,snow,etc.),
thunder or fog.

VAZ042-051-052>054-056-012200-
NORTHERN VIRGINIA

CITY           SKY/WX    TMP DP  RH WIND       PRES   REMARKS
WASH NATIONAL  LGT RAIN  69  54  58 S20       29.59F
DULLES         CLOUDY    69  46  43 S20G28    29.59F
FORT BELVOIR   CLOUDY    66  55  66 S9G17     29.61F
QUANTICO       LGT RAIN  65  55  70 SW15      29.67F
FREDERICKSBRG* CLOUDY    67  55  63 SW13G22     N/A
STAFFORD*      CLOUDY    67  50  54 SW14G20   29.72F
WARRENTON      CLOUDY    68  46  44 S15G23    29.63F
CULPEPER*      CLOUDY    67  52  58 SW18G33   29.64F
MANASSAS*        N/A     68  50  52 SW18G29   29.61F
LEESBURG*      PTSUNNY   70  50  49 MISG      29.59F
WINCHESTER     CLOUDY    64  45  48 SW5       29.58R
FRONT ROYAL*   CLOUDY    64  46  52 SW21G39   29.59R
LURAY*         CLOUDY    63  52  67 SW15G28   29.63F
$$

VAZ048-049-060>072-079>083-012200-
CENTRAL AND SOUTH CENTRAL VIRGINIA

CITY           SKY/WX    TMP DP  RH WIND       PRES   REMARKS
RICHMOND       CLOUDY    70  50  49 W17       29.79R
CHESTERFIELD*  MOCLDY    72  43  35 W13G22    29.81S
PETERSBURG*    PTSUNNY   73  46  38 W16G26    29.80S
HANOVER        PTSUNNY   70  48  45 W17G25    29.79R
TAPPAHANNOCK*  MOSUNNY   72  41  33 SW10      29.76F
QUINTON*       FAIR      71  51  49 W16G23    29.77F
CHARLOTTSVILLE LGT RAIN  66  51  58 SW14G28   29.70F
GORDONSVILLE*  CLOUDY    62  54  76 SW17      29.70F
ORANGE*        LGT RAIN  63  52  67 S18G30    29.70F
LOUISA*        DRIZZLE   68  55  64 SW15G35   29.74F
BUMPASS*       CLOUDY    68  48  49 W17G28    29.76S
FARMVILLE*     LGT RAIN  68  50  52 SW8       29.81S
CREWE*         CLOUDY    69  49  48 W9G20     29.83R
FORT PICKETT*  NOT AVBL
CHASE CITY*    CLOUDY    66  46  47 NW8       29.85S
CLARKSVILLE*   CLOUDY    66  46  48 NW10      29.85R
SOUTH HILL*    CLOUDY    69  49  49 W10G16    29.89R
LAWRENCEVILLE* CLOUDY    71  49  45 NW5       29.82R
EMPORIA*       CLOUDY    77  54  44 SW17G31   29.81R
$$

VAZ088>098-012200-
SOUTHEAST VIRGINIA

CITY           SKY/WX    TMP DP  RH WIND       PRES   REMARKS
NORFOLK        CLOUDY    82  55  39 SW22G36   29.75S
VIRGINIA BEACH CLOUDY    81  55  40 SW25G37   29.75F
NORFOLK NAVAL  PTSUNNY   81  53  37 SW24G40   29.77S
WEST POINT*    MOSUNNY   69  49  48 W10G18    29.79R
SALUDA*        CLOUDY    68  51  54 NW7G17    29.76R
NEWPORT NEWS   CLOUDY    80  55  42 SW20G28   29.75S
LANGLEY AFB    CLOUDY    79  57  46 SW22G32   29.75R
FORT EUSTIS    MOSUNNY   79  56  45 SW10G21   29.73S
WILLIAMSBURG*  PTSUNNY   79  54  41 NW22G30   29.78R
HR EXEC AP*    FAIR      81  57  44 SW18G38   29.75R
FRANKLIN*      PTSUNNY   79  55  42 SW16G31   29.79R
US460-WAKEFLD  MOSUNNY   80  56  43 SW15G30   29.76S
$$

VAZ020-022-025-037-045-012200-
WEST CENTRAL AND SOUTHWEST VIRGINIA

CITY           SKY/WX    TMP DP  RH WIND       PRES   REMARKS
STAUNTON*      CLOUDY    57  51  80 SW22G29   29.73F
WAYNESBORO*    CLOUDY    57  51  78 SW18G28   29.73F
HOT SPRINGS VA LGT RAIN  50  50 100 W30G48    29.74F
LYNCHBURG      LGT RAIN  57  52  83 S8        29.83F
DANVILLE       CLOUDY    63  50  62 N5        29.84F
SOUTH BOSTON*  CLOUDY    66  46  49 N5        29.84F
MARTINSVILLE   LGT RAIN  57  52  85 CALM      29.88F
ROANOKE        LGT RAIN  56  53  90 W12       29.82F
BLACKSBURG     RAIN      52  52  99 CALM      29.88R
DUBLIN*        RAIN      53  53  97 SW7       29.84F
MARION*        CLOUDY    53  52  97 W10       29.88F
HILLSVILLE*    LGT RAIN  51  51 100 W9        29.84F
RICHLANDS*     LGT RAIN  55  52  89 SW17G25   29.78F
WISE*          CLOUDY    57  55  94 SW18G31   29.78S
ABINGDON*      CLOUDY    55  55  99 SW7       29.85F
$$

MDZ021>025-VAZ099-100-012200-
SOUTHERN MARYLAND AND THE DELMARVA PENINSULA

CITY           SKY/WX    TMP DP  RH WIND       PRES   REMARKS
PATUXENT RIVER PTSUNNY   66  57  72 SW12G20   29.71F
BAY BRIDGE APT CLOUDY    66  54  63 S12       29.62F
LEONARDTOWN    PTSUNNY   64  54  68 SW12      29.72F
DOVER          PTSUNNY   65  64  98 SW16G22   29.62R
GEORGETOWN     CLOUDY    65  59  81 SW10      29.68R
EASTON         PTSUNNY   64  57  77 SW10      29.68F
CAMBRIDGE      PTSUNNY   68  57  68 SW9       29.68F
SALISBURY      CLOUDY    68  59  73 W10       29.72R
OCEAN CITY     PTSUNNY   69  58  67 SW16G23   29.71R
WALLOPS ISLAND CLOUDY    69  55  60 W18G35    29.75R
ACCOMACK*      CLOUDY    78  58  50 SW17G25   29.73S
$$

NCZ012>017-030>032-012200-
NORTH CENTRAL AND EASTERN NORTH CAROLINA

CITY           SKY/WX    TMP DP  RH WIND       PRES   REMARKS
ROANOKE RAPIDS FAIR      79  55  44 W21G30    29.81R
RALEIGH        PTSUNNY   76  56  49 SW18      29.83F
ELIZABETH CITY MOSUNNY   80  60  50 SW28G33   29.81F
AHOSKIE*         N/A     80  58  46 SW7       29.80F HAZE
EDENTON*       MOSUNNY   81  59  46 SW17G25   29.83F
CURRITUCK*     MOSUNNY   80  60  50 SW13G23   29.80F
KILL DEVIL HLS NOT AVBL
MANTEO         MOSUNNY   72  64  75 SW26G33   29.86F
CAPE HATTERAS  CLOUDY    72  65  78 SW21G30   29.93F HAZE
TARBORO*       NOT AVBL
GOLDSBORO      MOSUNNY   81  57  43 SW23G31   29.83F
WASHINGTON     NOT AVBL
GREENVILLE     PTSUNNY   81  57  44 SW21G35   29.87S
NEW BERN       CLOUDY    77  66  68 S13G22    29.89F
WILMINGTON     MOSUNNY   77  64  64 SW18G24   29.93F
$$

VAZ048-012200-
ELSEWHERE

CITY           SKY/WX    TMP DP  RH WIND       PRES   REMARKS
HARRISBURG PA  CLOUDY    65  53  65 W10G23    29.51S
BALTIMORE      CLOUDY    69  49  48 SW18G26   29.56F
ANNAPOLIS      CLOUDY    72  50  45 SW9       29.61F
ANDREWS AFB    LGT RAIN  66  55  68 S17       29.62F
PHILADELPHIA   CLOUDY    68  61  78 SW14      29.52F
HENDERSON NC   PTSUNNY   68  46  44 NW14G24   29.85R
GREENSBORO     CLOUDY    73  58  59 SW12      29.81F
ROCKY MOUNT    MOSUNNY   80  57  45 SW17G28   29.83S
$$

VAZ100-012200-
MARINE

STATION/POSITION TIME  TEMP    WIND        PRES    WAVE   SWELL
                       AIR SEA DIR/SP/G            HT/PER HT/PER
                 (UTC) (F)     (DEG/KT/KT) (MB)    (FT/S) (FT/S)
CAPE MAY NJ      2048   57 46  230/ 16/ 19 1003.8R
LEWES DE         2048      48  240/  9/ 16 1005.0R
OCEAN-CITY-INLET 2048   53 48  220/ 16/ 19 1006.2R
WACHAPREAGUE VA  2048   78 62  240/ 11/ 24 1006.5R
THOMAS POINT MD  2100   56 46  180/ 14/ 15   N/A
GOOSES REEF MD   2050   58     210/ 14/ 16 1005.2F
COVE POINT MD    2048   67     250/ 13/ 18 1006.0F
SOLOMONS ISLAND  2048   63 47  240/ 14/ 17   N/A
BISHOPS HEAD MD  2048   58 56  250/ 11/ 13 1007.2R
PINEY POINT MD   2048          260/ 11/ 13   N/A
POTOMAC MD       2050   56     270/ 10/ 12 1006.0R
CAMBRIDGE MD     2048   66 49  210/  8/ 13 1004.1F
LEWISETTA VA     2048   66 52  280/ 10/ 13 1006.6F
RAPPAHANNOCK LGT 2048          220/ 21/ 22 1007.2R
YORK RVR RNG VA  2048   73     240/ 23/ 25 1006.1R
YORKTOWN VA      2048   80 51  240/ 18/ 28 1006.6R
JAMESTOWN VA     2050   76     250/ 17/ 33   N/A
DOMINION TERM VA 2048   74     250/ 20/ 25 1007.8R
KIPTOPEKE VA     2048      51  240/ 13/ 16   N/A
CHES BAY BRIDGE  2048   76 51  240/ 23/ 28 1007.2R
CAPE HENRY VA    2048   81     230/ 18/ 26   N/A
WILLOUBY STN VA  2048   72     240/ 20/ 21 1008.2R
S CRANEY ISL VA  2048   80     240/ 18/ 30 1007.5S
CAPE HENRY BUOY  2042      51                N/A     5/ 7
OFFSHORE WE BUOY 2051      51                N/A     6/ 6
64NM E OF VA BCH 2050   60 51  200/ 25/ 31 1009.9F   8/ 7   3/15
DUCK PIER NC     2048   72 49  200/ 22/ 26 1009.6F
44100 DUCK FRF   2035      51                N/A     5/ 7
44056 DUCK FRF   2030      49                N/A     3/ 7
OREGON INLET NC  2042   66 63  200/ 24/ 27 1011.7F
HATTERAS NC      2048   70 66  210/ 16/ 22 1013.5F
DIAMOND SHLS NC  2050   73 73  220/ 27/ 33 1013.4F  10/ 8   3/15
CAPE LOOKOUT NC  2000   68     210/ 11/ 17 1014.5F
$$




USA.gov is the U.S. government's official web portal to all federal, state and local government web resources and services.